TimeEST,TemperatureF,Dew PointF,Humidity,Sea Level PressureIn,VisibilityMPH,Wind Direction,Wind SpeedMPH,Gust SpeedMPH,PrecipitationIn,Events,Conditions,WindDirDegrees,DateUTC
12:52 AM,42.1,41.0,96,30.11,0.5,Calm,Calm,-,N/A,Fog,Fog,0,2013-01-12 05:52:00
1:52 AM,41.0,41.0,100,30.12,0.2,Calm,Calm,-,N/A,Fog,Fog,0,2013-01-12 06:52:00
2:52 AM,42.1,41.0,96,30.13,0.2,Calm,Calm,-,N/A,Fog,Fog,0,2013-01-12 07:52:00
3:52 AM,41.0,41.0,100,30.12,0.2,Calm,Calm,-,N/A,Fog,Fog,0,2013-01-12 08:52:00
4:52 AM,41.0,39.9,96,30.13,0.2,Calm,Calm,-,N/A,Fog,Fog,0,2013-01-12 09:52:00
5:52 AM,41.0,41.0,100,30.14,0.2,Calm,Calm,-,N/A,Fog,Fog,0,2013-01-12 10:52:00
6:52 AM,41.0,41.0,100,30.15,0.2,Calm,Calm,-,N/A,Fog,Patches of Fog,0,2013-01-12 11:52:00
7:52 AM,41.0,41.0,100,30.16,0.2,Calm,Calm,-,N/A,Fog,Patches of Fog,0,2013-01-12 12:52:00
8:52 AM,42.1,41.0,96,30.18,0.5,NW,4.6,-,N/A,Fog,Patches of Fog,310,2013-01-12 13:52:00
9:52 AM,44.1,41.0,89,30.18,2.0,Calm,Calm,-,N/A,Fog,Patches of Fog,0,2013-01-12 14:52:00
10:52 AM,44.1,42.1,93,30.18,2.0,Calm,Calm,-,N/A,Fog,Patches of Fog,0,2013-01-12 15:52:00
11:52 AM,46.4,42.8,87,30.16,2.5,Calm,Calm,-,N/A,Fog,Patches of Fog,0,2013-01-12 16:52:00
12:41 PM,46.4,44.6,93,30.14,3.0,Calm,Calm,-,N/A,Fog,Patches of Fog,0,2013-01-12 17:41:00
12:52 PM,48.0,44.1,86,30.14,3.0,Calm,Calm,-,N/A,,Mostly Cloudy,0,2013-01-12 17:52:00
1:04 PM,50.0,44.6,82,30.13,7.0,Calm,Calm,-,N/A,,Scattered Clouds,0,2013-01-12 18:04:00
1:52 PM,53.1,46.0,77,30.12,9.0,Calm,Calm,-,N/A,,Overcast,0,2013-01-12 18:52:00
2:52 PM,53.1,46.0,77,30.13,9.0,SW,6.9,-,N/A,,Mostly Cloudy,220,2013-01-12 19:52:00
3:52 PM,52.0,45.0,77,30.14,10.0,SSW,6.9,-,N/A,,Mostly Cloudy,200,2013-01-12 20:52:00
4:52 PM,46.9,44.1,90,30.14,7.0,SSW,5.8,-,N/A,,Mostly Cloudy,200,2013-01-12 21:52:00
5:24 PM,44.6,44.6,100,30.15,4.0,South,5.8,-,N/A,,Mostly Cloudy,190,2013-01-12 22:24:00
5:30 PM,44.6,44.6,100,30.14,1.5,Calm,Calm,-,N/A,,Mostly Cloudy,0,2013-01-12 22:30:00
5:49 PM,44.6,44.6,100,30.15,0.2,Calm,Calm,-,N/A,,Mist,0,2013-01-12 22:49:00
5:52 PM,45.0,44.1,97,30.15,0.2,South,3.5,-,N/A,,Mist,190,2013-01-12 22:52:00
6:52 PM,45.0,44.1,97,30.14,0.2,Calm,Calm,-,N/A,,Overcast,0,2013-01-12 23:52:00
7:52 PM,45.0,44.1,97,30.15,0.2,SW,3.5,-,N/A,Fog,Fog,230,2013-01-13 00:52:00
8:42 PM,44.6,44.6,100,30.14,0.2,Calm,Calm,-,N/A,Fog,Fog,0,2013-01-13 01:42:00
8:52 PM,45.0,45.0,100,30.14,0.2,Calm,Calm,-,N/A,Fog,Fog,0,2013-01-13 01:52:00
9:52 PM,45.0,45.0,100,30.14,0.2,South,3.5,-,N/A,Fog,Fog,180,2013-01-13 02:52:00
10:52 PM,45.0,44.1,97,30.14,0.2,SSW,5.8,-,N/A,Fog,Fog,200,2013-01-13 03:52:00
11:24 PM,44.6,44.6,100,30.14,0.1,Calm,Calm,-,N/A,Fog,Fog,0,2013-01-13 04:24:00
11:52 PM,44.1,44.1,100,30.14,0.1,SE,4.6,-,N/A,Fog,Fog,140,2013-01-13 04:52:00